Regional Weather Roundup
Issued by NWS

Home | Current Version | Previous Version | Text Only | Print | Product List | Glossary Off
Versions: 1 2 3 4 5 6 7 8 9 10 11 12 13 14 15 16 17 18 19 20 21 22 23 24 25 26 27 28 29 30 31 32 33 34 35 36 37 38 39 40 41 42 43 44 45 46 47 48 49 50

000
ASUS45 KBOI 192210
RWRID
WEATHER ROUNDUP FOR IDAHO
NATIONAL WEATHER SERVICE BOISE ID
400 PM MDT TUE AUG 19 2014

NOTE: "FAIR" INDICATES FEW OR NO CLOUDS BELOW 12000 FEET
WITH NO SIGNIFICANT WEATHER AND/OR OBSTRUCTIONS TO VISIBILITY

IDZ012-014-192300-
SOUTHWEST IDAHO


CITY           SKY/WX    TMP DP  RH WIND       PRES   REMARKS
BOISE          SUNNY     92  41  17 W9        29.71F
CALDWELL       SUNNY     91  48  22 E6        29.71F
MOUNTAIN HOME  MOSUNNY   90  42  18 N5        29.71F
$$

IDZ016-017-192300-
SOUTHCENTRAL IDAHO


CITY           SKY/WX    TMP DP  RH WIND       PRES   REMARKS
BURLEY         MOSUNNY   86  48  26 S16G23    29.79F
JEROME         PTSUNNY   84  55  36 S8        29.79F
TWIN FALLS     CLOUDY    82  51  34 S9        29.79F
$$

IDZ019>023-192300-
SOUTHEAST IDAHO


CITY           SKY/WX    TMP DP  RH WIND       PRES   REMARKS
IDAHO FALLS    PTSUNNY   84  48  28 SW12      29.87F
POCATELLO      MOSUNNY   83  46  27 S14G24    29.86F
REXBURG        PTSUNNY   80  46  30 SW13      29.87F
$$

IDZ006-010-011-018-031-032-192300-
CENTRAL IDAHO MOUNTAINS


CITY           SKY/WX    TMP DP  RH WIND       PRES   REMARKS
MCCALL         LGT RAIN  80  34  19 W9        29.85F
HAILEY         LGT RAIN  79  48  34 NW12G20   29.91R
STANLEY          N/A     67  38  34 S8G17     30.01R
SALMON         CLOUDY    68  54  60 SE3       29.84F
CHALLIS        LGT RAIN  67  45  45 SW16G36   29.95R
$$

IDZ002-004-006-007-026-192300-
NORTHERN IDAHO


CITY           SKY/WX    TMP DP  RH WIND       PRES   REMARKS
LEWISTON       PTSUNNY   90  51  26 W14       29.67F
LOWELL           N/A     94  52  24 VRB3      29.64F HX  91
COEUR D`ALENE  PTSUNNY   84  52  32 S6        29.71F
MULLAN PASS    PTSUNNY   61  54  77 NW7       29.93F
$$



USA.gov is the U.S. government's official web portal to all federal, state and local government web resources and services.